This is the latest recevied weather packets stored in our database for station/object N5GMJ. If no packets are shown the sender has not sent any weather packets the latest 10 day(s).
| Time | Temp. | Humidity | Pressure | Rain* | Wind** | Luminosity | Snow |
|---|---|---|---|---|---|---|---|
| 1777491470 | 17.78° C | 72% | 1016.2 hPa | 0 mm | - | - | - |
| 1777491167 | 17.78° C | 75% | 1016.3 hPa | 0 mm | - | - | - |
| 1777490863 | 17.22° C | 75% | 1016.4 hPa | 0 mm | - | - | - |
| 1777490559 | 17.22° C | 77% | 1016.5 hPa | 0 mm | - | - | - |
| 1777490256 | 16.67° C | 75% | 1016.6 hPa | 0 mm | - | - | - |
| 1777489953 | 16.67° C | 77% | 1016.8 hPa | 0 mm | - | - | - |
| 1777489652 | 16.67° C | 79% | 1016.9 hPa | 0 mm | - | - | - |
| 1777489347 | 16.67° C | 78% | 1016.9 hPa | 0 mm | - | - | - |
| 1777489045 | 16.67° C | 78% | 1016.7 hPa | 0 mm | - | - | - |
| 1777488741 | 16.11° C | 78% | 1016.7 hPa | 0 mm | - | - | - |
| 1777488439 | 16.11° C | 80% | 1017 hPa | 0 mm | - | - | - |
| 1777488137 | 16.11° C | 79% | 1017 hPa | 0 mm | - | - | - |
| 1777487835 | 16.11° C | 79% | 1017.1 hPa | 0 mm | - | - | - |
| 1777487533 | 16.67° C | 79% | 1016.9 hPa | 0 mm | - | - | - |
| 1777487230 | 16.67° C | 80% | 1016.9 hPa | 0 mm | - | - | - |
| 1777486925 | 16.11° C | 81% | 1017.1 hPa | 0 mm | - | - | - |
| 1777486622 | 16.11° C | 79% | 1017.2 hPa | 0 mm | - | - | - |
| 1777486320 | 16.11° C | 80% | 1017.8 hPa | 0 mm | - | - | - |
| 1777486017 | 15.56° C | 80% | 1017.5 hPa | 0 mm | - | - | - |
| 1777485714 | 15.56° C | 80% | 1017.6 hPa | 0 mm | - | - | - |
| 1777485409 | 16.11° C | 79% | 1017.5 hPa | 0 mm | - | - | - |
| 1777485105 | 15.56° C | 80% | 1017.3 hPa | 0 mm | - | - | - |
| 1777484803 | 15.56° C | 80% | 1017.8 hPa | 0 mm | - | - | - |
| 1777484498 | 15.56° C | 81% | 1017.8 hPa | 0 mm | - | - | - |
| 1777484196 | 15.56° C | 81% | 1018.1 hPa | 0 mm | - | - | - |
* Rain latest hour (hover to see other rain measurements)
** Current wind speed in m/s (hover to see current wind gust speed)